| time (UTC) | temp F | wind direction | speed MPH | gust MPH | rain 1hr in | rain 24hr in | rain mn in | humidity % | barometer mb |
| 20260903133002 | 68 | 206 | 0.0 | 0.0 | 0.00 | 0.65 | 0.20 | 100 | 1013.5 |
| 20260903131502 | 68 | 201 | 0.0 | 0.0 | 0.00 | 0.65 | 0.20 | 99 | 1013.7 |
| 20260903124615 | 67 | 78 | 0.0 | 0.0 | 0.00 | 0.65 | 0.20 | 100 | 1013.5 |
| 20260903121504 | 66 | 326 | 0.0 | 0.0 | 0.00 | 0.65 | 0.20 | 100 | 1013.8 |
| 20260903120003 | 65 | 325 | 0.0 | 0.0 | 0.00 | 0.66 | 0.20 | 100 | 1013.9 |
| 20260903114502 | 65 | 298 | 0.0 | 0.0 | 0.00 | 0.66 | 0.20 | 99 | 1013.9 |
| 20260903113105 | 65 | 196 | 0.0 | 0.0 | 0.00 | 0.66 | 0.20 | 99 | 1013.6 |
| 20260903111503 | 64 | 259 | 0.0 | 0.0 | 0.00 | 0.66 | 0.20 | 99 | 1013.8 |
| 20260903104603 | 64 | 259 | 0.0 | 0.0 | 0.00 | 0.68 | 0.20 | 99 | 1014.2 |
| 20260903103002 | 64 | 258 | 0.0 | 0.0 | 0.01 | 0.68 | 0.20 | 99 | 1014.0 |
| 20260903101604 | 64 | 260 | 0.0 | 0.0 | 0.01 | 0.68 | 0.20 | 99 | 1014.3 |
| 20260903100005 | 64 | 260 | 0.0 | 0.0 | 0.01 | 0.68 | 0.20 | 99 | 1014.2 |
| 20260903094502 | 64 | 260 | 0.0 | 0.0 | 0.01 | 0.68 | 0.20 | 99 | 1014.3 |
| 20260903093105 | 64 | 261 | 0.0 | 0.0 | 0.00 | 0.67 | 0.19 | 99 | 1014.1 |
| 20260903091502 | 64 | 259 | 0.0 | 0.0 | 0.00 | 0.67 | 0.19 | 99 | 1013.8 |
| 20260903084602 | 64 | 126 | 0.0 | 0.0 | 0.00 | 0.67 | 0.19 | 99 | 1014.2 |
| 20260903083002 | 64 | 123 | 0.0 | 0.0 | 0.01 | 0.67 | 0.19 | 99 | 1014.1 |
| 20260903081603 | 64 | 123 | 0.0 | 0.0 | 0.01 | 0.67 | 0.19 | 99 | 1014.2 |
| 20260903080002 | 64 | 120 | 0.0 | 0.0 | 0.04 | 0.67 | 0.19 | 99 | 1014.4 |
| 20260903074503 | 64 | 120 | 0.0 | 0.0 | 0.04 | 0.67 | 0.19 | 99 | 1014.2 |
| 20260903073003 | 64 | 120 | 0.0 | 0.0 | 0.03 | 0.66 | 0.18 | 99 | 1014.4 |
| 20260903071603 | 64 | 123 | 0.0 | 0.0 | 0.03 | 0.66 | 0.18 | 99 | 1014.8 |
| 20260903070010 | 64 | 123 | 0.0 | 0.0 | 0.01 | 0.64 | 0.16 | 99 | 1014.4 |
| 20260903064502 | 64 | 149 | 0.0 | 0.0 | 0.01 | 0.64 | 0.15 | 99 | 1014.8 |
| 20260903063102 | 64 | 251 | 0.0 | 0.0 | 0.01 | 0.64 | 0.15 | 99 | 1015.1 |
| 20260903061505 | 64 | 251 | 0.0 | 0.0 | 0.01 | 0.64 | 0.15 | 99 | 1014.9 |
| 20260903054618 | 64 | 251 | 0.0 | 0.0 | 0.03 | 0.64 | 0.14 | 99 | 1015.3 |
| 20260903053002 | 63 | 251 | 0.0 | 0.0 | 0.06 | 0.64 | 0.14 | 99 | 1016.1 |
| 20260903051605 | 63 | 355 | 0.0 | 0.0 | 0.09 | 0.64 | 0.14 | 99 | 1016.7 |
| 20260903044603 | 63 | 268 | 0.0 | 0.0 | 0.18 | 0.61 | 0.11 | 99 | 1016.1 |
| 20260903043003 | 63 | 268 | 0.0 | 0.0 | 0.18 | 0.57 | 0.08 | 99 | 1016.7 |
| 20260903041613 | 63 | 269 | 0.0 | 0.0 | 0.14 | 0.54 | 0.04 | 99 | 1017.4 |
| 20260903040002 | 63 | 270 | 0.0 | 0.0 | 0.10 | 0.50 | 0.50 | 99 | 1017.7 |
| 20260903034503 | 63 | 270 | 0.0 | 0.0 | 0.02 | 0.42 | 0.42 | 99 | 1018.5 |
| 20260903033102 | 63 | 270 | 0.0 | 0.0 | 0.00 | 0.40 | 0.40 | 99 | 1018.5 |
| 20260903031502 | 63 | 270 | 0.0 | 0.0 | 0.00 | 0.40 | 0.40 | 99 | 1017.8 |
| 20260903030103 | 63 | 270 | 0.0 | 0.0 | 0.00 | 0.40 | 0.40 | 99 | 1017.8 |
| 20260903024602 | 63 | 270 | 0.0 | 0.0 | 0.00 | 0.40 | 0.40 | 99 | 1017.6 |
| 20260903023103 | 63 | 270 | 0.0 | 0.0 | 0.00 | 0.40 | 0.40 | 99 | 1017.7 |
| 20260903021504 | 63 | 270 | 0.0 | 0.0 | 0.00 | 0.40 | 0.40 | 99 | 1018.2 |
| 20260903020004 | 63 | 270 | 0.0 | 0.0 | 0.01 | 0.42 | 0.40 | 99 | 1018.7 |
| 20260903014503 | 63 | 270 | 0.0 | 0.0 | 0.01 | 0.42 | 0.40 | 99 | 1018.9 |
| 20260903013103 | 63 | 270 | 0.0 | 0.0 | 0.01 | 0.42 | 0.40 | 99 | 1018.6 |
| 20260903011602 | 63 | 270 | 0.0 | 0.0 | 0.01 | 0.42 | 0.40 | 99 | 1018.3 |
| 20260903010003 | 63 | 270 | 0.0 | 0.0 | 0.00 | 0.41 | 0.39 | 99 | 1018.2 |
| 20260903004503 | 64 | 270 | 0.0 | 0.0 | 0.01 | 0.41 | 0.39 | 99 | 1018.8 |
| 20260903003102 | 64 | 346 | 0.0 | 0.0 | 0.01 | 0.41 | 0.39 | 99 | 1018.2 |
| 20260903001505 | 64 | 346 | 0.0 | 0.0 | 0.01 | 0.41 | 0.39 | 99 | 1018.1 |
| 20260902234603 | 64 | 73 | 0.0 | 0.0 | 0.00 | 0.40 | 0.38 | 99 | 1018.5 |
| 20260902233003 | 64 | 73 | 0.0 | 0.0 | 0.00 | 0.40 | 0.38 | 99 | 1018.5 |
| 20260902231603 | 64 | 73 | 0.0 | 0.0 | 0.00 | 0.40 | 0.38 | 99 | 1018.3 |
| 20260902230002 | 64 | 73 | 0.0 | 0.0 | 0.00 | 0.40 | 0.38 | 99 | 1018.4 |
| 20260902224502 | 64 | 73 | 0.0 | 0.0 | 0.00 | 0.40 | 0.38 | 99 | 1018.6 |
| 20260902223103 | 64 | 73 | 0.0 | 0.0 | 0.00 | 0.40 | 0.38 | 98 | 1018.7 |
| 20260902221502 | 64 | 80 | 0.0 | 0.0 | 0.00 | 0.40 | 0.38 | 98 | 1019.0 |
| 20260902220104 | 64 | 80 | 0.0 | 0.0 | 0.00 | 0.40 | 0.38 | 99 | 1018.9 |
| 20260902214630 | 65 | 80 | 0.0 | 0.0 | 0.00 | 0.40 | 0.38 | 98 | 1018.9 |
| 20260902213001 | 65 | 80 | 0.0 | 0.0 | 0.00 | 0.40 | 0.38 | 98 | 1018.9 |
| 20260902211604 | 65 | 80 | 0.0 | 0.0 | 0.00 | 0.40 | 0.38 | 98 | 1018.9 |
| 20260902210135 | 65 | 80 | 0.0 | 0.0 | 0.00 | 0.40 | 0.38 | 98 | 1018.9 |
| 20260902204603 | 65 | 80 | 0.0 | 0.0 | 0.01 | 0.42 | 0.38 | 99 | 1018.8 |
| 20260902203004 | 65 | 80 | 0.0 | 0.0 | 0.03 | 0.42 | 0.38 | 99 | 1018.8 |
| 20260902201621 | 64 | 80 | 0.0 | 0.0 | 0.03 | 0.42 | 0.38 | 99 | 1018.8 |
| 20260902200002 | 65 | 80 | 0.0 | 0.0 | 0.03 | 0.42 | 0.38 | 99 | 1018.8 |
| 20260902194603 | 64 | 80 | 0.0 | 0.0 | 0.02 | 0.41 | 0.37 | 99 | 1018.6 |
| 20260902193002 | 64 | 80 | 0.0 | 0.0 | 0.00 | 0.39 | 0.35 | 99 | 1019.0 |
| 20260902191604 | 63 | 80 | 0.0 | 0.0 | 0.00 | 0.39 | 0.35 | 99 | 1019.1 |
| 20260902190007 | 63 | 80 | 0.0 | 0.0 | 0.00 | 0.39 | 0.35 | 99 | 1019.3 |
| 20260902184503 | 63 | 80 | 0.0 | 0.0 | 0.03 | 0.39 | 0.35 | 99 | 1019.7 |
| 20260902183102 | 63 | 80 | 0.0 | 0.0 | 0.06 | 0.39 | 0.35 | 99 | 1019.6 |
| 20260902181502 | 62 | 80 | 0.0 | 0.0 | 0.16 | 0.39 | 0.35 | 99 | 1019.7 |
| 20260902174605 | 62 | 98 | 0.0 | 0.0 | 0.26 | 0.36 | 0.32 | 99 | 1019.9 |
| 20260902173006 | 62 | 36 | 0.0 | 0.0 | 0.22 | 0.32 | 0.28 | 99 | 1020.5 |
| 20260902171503 | 62 | 36 | 0.0 | 0.0 | 0.13 | 0.23 | 0.19 | 99 | 1020.3 |
| 20260902170104 | 61 | 36 | 0.0 | 0.0 | 0.08 | 0.18 | 0.14 | 99 | 1020.8 |
| 20260902164502 | 61 | 36 | 0.0 | 0.0 | 0.00 | 0.10 | 0.06 | 99 | 1020.2 |
| 20260902163102 | 61 | 37 | 0.0 | 0.0 | 0.00 | 0.10 | 0.06 | 99 | 1020.4 |
| 20260902161505 | 61 | 40 | 0.0 | 0.0 | 0.00 | 0.10 | 0.06 | 99 | 1020.4 |
| 20260902154604 | 61 | 37 | 0.0 | 0.0 | 0.00 | 0.10 | 0.06 | 99 | 1020.1 |
| 20260902153002 | 62 | 265 | 0.0 | 0.0 | 0.00 | 0.10 | 0.06 | 99 | 1019.8 |
| 20260902151604 | 62 | 58 | 0.0 | 0.0 | 0.00 | 0.10 | 0.06 | 99 | 1019.9 |
| 20260902150005 | 61 | 58 | 0.0 | 0.0 | 0.00 | 0.10 | 0.06 | 99 | 1020.1 |
| 20260902144606 | 61 | 57 | 0.0 | 0.0 | 0.00 | 0.10 | 0.06 | 99 | 1020.4 |
| 20260902143002 | 61 | 63 | 0.0 | 0.0 | 0.01 | 0.10 | 0.06 | 99 | 1020.7 |
| 20260902141604 | 62 | 62 | 0.0 | 0.0 | 0.01 | 0.10 | 0.06 | 99 | 1020.5 |
| 20260902140002 | 62 | 76 | 0.0 | 0.0 | 0.01 | 0.20 | 0.06 | 99 | 1020.3 |
| 20260902134506 | 62 | 78 | 0.0 | 0.0 | 0.01 | 0.20 | 0.06 | 99 | 1020.1 |